Tracking 19796 objects as of 19-Jul-2019
HD Live streaming from Space Station
objects crossing your sky now

NOAA 16 DEB

Track NOAA 16 DEB now!
10-day predictions


NORAD ID: 41076
Int'l Code: 2000-055AK
Perigee: 560.7 km
Apogee: 857.1 km
Inclination: 99.2 °
Period: 98.8 minutes
Semi major axis: 7079 km
RCS: Unknown
Launch date: September 21, 2000
Source: United States (US)
Launch site: AIR FORCE WESTERN TEST RANGE (AFWTR)

Note: This is SATELLITE DEBRIS
aabbcc
Your satellite tracking list
Your tracking list is empty




NASA's NSSDC Master Catalog

Two Line Element Set (TLE):
1 41076U 00055AK  19200.14451722  .00000359  00000-0  70275-4 0  9998
2 41076  99.2117  63.4122 0209327  42.6746 319.0497 14.57333111193543
Source of the keplerian elements: AFSPC